Weather History for KAAA - May, 2014

Change the Weather History Date:

Monday, May 26, 2014

  Actual Average (KSPI) Record (KSPI)
Temperature  
Mean Temperature 76 °F 67 °F  
Max Temperature 90 °F 78 °F 95 °F (1911)
Min Temperature 62 °F 56 °F 38 °F (1961)
Degree Days  
Heating Degree Days 0 2  
Month to date heating degree days 116  
Since 1 July heating degree days 5461  
Cooling Degree Days 11 4  
Month to date cooling degree days 62  
Year to date cooling degree days 82  
Growing Degree Days 26 (Base 50)    
Moisture  
Dew Point 61 °F    
Average Humidity 61    
Maximum Humidity 81    
Minimum Humidity 36    
Precipitation  
Precipitation 0.00 in 0.14 in 4.20 in (1893)
Month to date precipitation 3.53  
Year to date precipitation 13.30  
Snow  
Snow 0.00 in 0.00 in 0.00 in ()
Month to date snowfall 0.0  
Since 1 July snowfall 20.9  
Snow Depth -    
Sea Level Pressure  
Sea Level Pressure 29.99 in    
Wind  
Wind Speed 4 mph (SSW)    
Max Wind Speed 10 mph    
Max Gust Speed 21 mph    
Visibility 10 miles    
Events      
T = Trace of Precipitation, MM = Missing Value Source: NWS Daily Summary

Daily Weather History Graph

Daily Weather History Graph

Search for Another Location

Airport or City:

Trip Planner

Search our weather history database for the weather conditions in past years. The results will help you decide how hot, cold, wet, or windy it might be!

Date:

Astronomy

May. 26, 2014 Rise Set
Actual Time 5:33 AM CDT 8:16 PM CDT
Civil Twilight 5:01 AM CDT 8:47 PM CDT
Nautical Twilight 4:21 AM CDT 9:27 PM CDT
Astronomical Twilight 3:36 AM CDT 10:13 PM CDT
Moon 4:15 AM CDT (5/26) 6:18 PM CDT (5/26)
Length of Visible Light 15h 46m
Length of Day
14h 42m
Waning Crescent, 5% of the Moon is Illuminated
May 26
Waning Crescent
May 28
New
Jun 5
First Quarter
Jun 12
Full
Jun 19
Last Quarter

Hourly Weather History & Observations

Time (CDT) Temp. Heat Index Dew Point Humidity Pressure Visibility Wind Dir Wind Speed Gust Speed Precip Events Conditions
12:15 AM 66.2 °F - 57.2 °F 73% 30.05 in 10.0 mi Calm Calm - N/A   Clear
12:35 AM 66.6 °F - 56.8 °F 71% 30.04 in 10.0 mi SE 3.5 mph - N/A   Clear
12:55 AM 66.0 °F - 56.5 °F 71% 30.04 in 10.0 mi Calm Calm - N/A   Clear
1:15 AM 64.6 °F - 56.5 °F 75% 30.04 in 10.0 mi Calm Calm - N/A   Clear
1:35 AM 65.3 °F - 56.5 °F 73% 30.03 in 10.0 mi Calm Calm - N/A   Clear
1:55 AM 64.8 °F - 56.7 °F 75% 30.03 in 10.0 mi SSE 3.5 mph - N/A   Clear
2:15 AM 64.4 °F - 56.5 °F 75% 30.02 in 10.0 mi Calm Calm - N/A   Clear
2:35 AM 64.4 °F - 56.7 °F 76% 30.02 in 10.0 mi SE 3.5 mph - N/A   Clear
2:55 AM 64.4 °F - 56.7 °F 76% 30.02 in 10.0 mi SSE 3.5 mph - N/A   Clear
3:15 AM 63.7 °F - 56.7 °F 78% 30.02 in 10.0 mi SSE 4.6 mph - N/A   Clear
3:35 AM 63.5 °F - 56.7 °F 78% 30.02 in 10.0 mi SSE 4.6 mph - N/A   Clear
3:55 AM 63.5 °F - 56.8 °F 79% 30.02 in 10.0 mi SSE 3.5 mph - N/A   Clear
4:15 AM 63.3 °F - 56.8 °F 79% 30.02 in 10.0 mi SSE 3.5 mph - N/A   Clear
4:35 AM 63.0 °F - 56.8 °F 80% 30.02 in 10.0 mi SSE 3.5 mph - N/A   Clear
4:55 AM 62.6 °F - 56.8 °F 81% 30.02 in 10.0 mi Calm Calm - N/A   Clear
5:15 AM 63.5 °F - 57.2 °F 80% 30.02 in 10.0 mi Calm Calm - N/A   Clear
5:35 AM 63.0 °F - 57.2 °F 81% 30.02 in 10.0 mi SSE 3.5 mph - N/A   Clear
5:55 AM 63.1 °F - 57.2 °F 81% 30.03 in 10.0 mi SSE 3.5 mph - N/A   Clear
6:15 AM 64.0 °F - 58.1 °F 81% 30.04 in 10.0 mi SSE 3.5 mph - N/A   Clear
6:35 AM 65.3 °F - 59.0 °F 80% 30.04 in 10.0 mi SSE 3.5 mph - N/A   Clear
6:55 AM 68.4 °F - 60.1 °F 75% 30.04 in 10.0 mi South 6.9 mph - N/A   Clear
7:15 AM 68.7 °F - 60.6 °F 75% 30.04 in 10.0 mi South 5.8 mph - N/A   Clear
7:35 AM 69.3 °F - 61.5 °F 76% 30.04 in 10.0 mi South 5.8 mph - N/A   Clear
7:55 AM 70.0 °F - 61.9 °F 75% 30.05 in 10.0 mi South 5.8 mph - N/A   Clear
8:15 AM 70.9 °F - 62.8 °F 75% 30.05 in 10.0 mi South 4.6 mph - N/A   Clear
8:35 AM 73.4 °F - 63.9 °F 72% 30.05 in 10.0 mi SSW 4.6 mph - N/A   Clear
8:55 AM 75.6 °F - 64.6 °F 69% 30.04 in 10.0 mi South 4.6 mph - N/A   Clear
9:15 AM 77.9 °F - 65.3 °F 65% 30.04 in 10.0 mi Calm Calm - N/A   Clear
9:35 AM 78.3 °F - 65.3 °F 64% 30.03 in 10.0 mi Calm Calm - N/A   Clear
9:55 AM 80.8 °F 82.9 °F 66.4 °F 61% 30.03 in 10.0 mi Calm Calm - N/A   Clear
10:15 AM 81.7 °F 83.8 °F 66.2 °F 59% 30.02 in 10.0 mi Calm Calm - N/A   Clear
10:35 AM 82.9 °F 84.8 °F 65.5 °F 55% 30.02 in 10.0 mi South 5.8 mph - N/A   Clear
10:55 AM 84.4 °F 86.3 °F 65.3 °F 53% 30.02 in 10.0 mi Calm Calm - N/A   Clear
11:15 AM 84.6 °F 86.1 °F 64.4 °F 51% 30.01 in 10.0 mi SSW 5.8 mph - N/A   Clear
11:35 AM 86.7 °F 87.8 °F 63.5 °F 46% 30.01 in 10.0 mi SSW 5.8 mph - N/A   Clear
11:55 AM 86.2 °F 86.8 °F 62.4 °F 45% 30.00 in 10.0 mi SSW 6.9 mph - N/A   Clear
12:15 PM 87.8 °F 88.5 °F 62.8 °F 43% 29.99 in 10.0 mi South 10.4 mph - N/A   Clear
12:35 PM 88.0 °F 88.1 °F 61.3 °F 41% 29.99 in 10.0 mi SSW 4.6 mph - N/A   Scattered Clouds
12:55 PM 88.5 °F 88.9 °F 61.7 °F 41% 29.99 in 10.0 mi SW 5.8 mph - N/A   Scattered Clouds
1:15 PM 89.2 °F 88.7 °F 59.9 °F 37% 29.98 in 10.0 mi SSW 6.9 mph 18.4 mph N/A   Scattered Clouds
1:35 PM 88.9 °F 89.1 °F 61.9 °F 40% 29.98 in 10.0 mi SSW 8.1 mph - N/A   Clear
1:55 PM 89.2 °F 89.3 °F 61.0 °F 39% 29.97 in 10.0 mi SSW 8.1 mph 18.4 mph N/A   Clear
2:15 PM 89.8 °F 90.4 °F 62.2 °F 40% 29.96 in 10.0 mi SW 9.2 mph - N/A   Clear
2:35 PM 89.2 °F 89.3 °F 61.0 °F 39% 29.95 in 10.0 mi SSW 8.1 mph 17.3 mph N/A   Clear
2:55 PM 90.3 °F 90.5 °F 61.2 °F 38% 29.94 in 10.0 mi SW 8.1 mph - N/A   Scattered Clouds
3:15 PM 88.9 °F 89.4 °F 62.2 °F 41% 29.94 in 10.0 mi SSW 8.1 mph - N/A   Scattered Clouds
3:35 PM 90.0 °F 89.7 °F 60.8 °F 37% 29.92 in 10.0 mi SSW 10.4 mph 18.4 mph N/A   Scattered Clouds
3:55 PM 90.9 °F 90.6 °F 60.8 °F 36% 29.92 in 10.0 mi SSW 8.1 mph 19.6 mph N/A   Clear
4:15 PM 88.7 °F 88.8 °F 61.5 °F 40% 29.92 in 10.0 mi SW 10.4 mph 17.3 mph N/A   Scattered Clouds
4:35 PM 89.2 °F 89.6 °F 62.1 °F 40% 29.92 in 10.0 mi SSW 8.1 mph - N/A   Scattered Clouds
4:55 PM 88.2 °F 88.4 °F 61.7 °F 41% 29.92 in 10.0 mi SSW 10.4 mph 18.4 mph N/A   Scattered Clouds
5:15 PM 88.0 °F 87.6 °F 59.9 °F 39% 29.92 in 10.0 mi WSW 9.2 mph 17.3 mph N/A   Scattered Clouds
5:35 PM 82.6 °F 82.3 °F 58.1 °F 43% 29.93 in 10.0 mi WSW 8.1 mph 20.7 mph N/A   Scattered Clouds
5:55 PM 80.8 °F 81.3 °F 59.2 °F 48% 29.94 in 10.0 mi SW 6.9 mph - N/A   Clear
6:15 PM 80.8 °F 81.0 °F 57.4 °F 45% 29.95 in 10.0 mi SW 10.4 mph 19.6 mph N/A   Scattered Clouds
6:35 PM 79.9 °F - 59.4 °F 49% 29.95 in 10.0 mi SW 9.2 mph 19.6 mph N/A   Clear
6:55 PM 78.8 °F - 61.7 °F 56% 29.94 in 10.0 mi SW 6.9 mph - N/A   Clear
7:15 PM 78.6 °F - 62.8 °F 58% 29.94 in 10.0 mi SW 5.8 mph - N/A   Clear
7:35 PM 78.4 °F - 63.3 °F 60% 29.95 in 10.0 mi SW 4.6 mph - N/A   Clear
7:55 PM 78.3 °F - 63.7 °F 61% 29.95 in 10.0 mi SW 4.6 mph - N/A   Clear
8:15 PM 77.4 °F - 64.4 °F 64% 29.95 in 10.0 mi Calm Calm - N/A   Clear
8:35 PM 77.2 °F - 65.1 °F 66% 29.95 in 10.0 mi SW 5.8 mph - N/A   Clear
8:55 PM 77.0 °F - 65.5 °F 67% 29.95 in 10.0 mi SW 3.5 mph - N/A   Clear
9:15 PM 77.0 °F - 65.5 °F 67% 29.96 in 10.0 mi WSW 3.5 mph - N/A   Clear
9:35 PM 76.5 °F - 64.6 °F 67% 29.96 in 10.0 mi SW 4.6 mph - N/A   Clear
9:55 PM 76.1 °F - 64.6 °F 67% 29.97 in 10.0 mi SW 4.6 mph - N/A   Clear
10:15 PM 75.6 °F - 64.6 °F 69% 29.97 in 10.0 mi SW 4.6 mph - N/A   Clear
10:35 PM 75.4 °F - 64.6 °F 69% 29.98 in 10.0 mi SW 3.5 mph - N/A   Clear
10:55 PM 75.2 °F - 64.4 °F 69% 29.97 in 10.0 mi SW 4.6 mph - N/A   Clear
11:15 PM 74.8 °F - 64.2 °F 69% 29.97 in 10.0 mi SW 3.5 mph - N/A   Clear
11:35 PM 74.7 °F - 63.7 °F 69% 29.97 in 10.0 mi SW 3.5 mph - N/A   Clear
11:55 PM 74.7 °F - 63.1 °F 67% 29.98 in 10.0 mi SW 5.8 mph - N/A   Scattered Clouds